Location: Oshawa
(43.9000°N, 78.8670°W)
Time: 21:55:14
(UTC-04:00)

Amateur Radio Satellites - All Passes

Search period start: 19 September 2014 21:25
Search period end: 20 September 2014 21:25
Location: Oshawa, 43.9000°N, 78.8670°W

Satellite Date Start Highest point End Downlink Frequencies (MHz)
Time Altitude Azimuth
UKube-1 19 Sep 21:37:42 21:41:57 58° 72° (ENE) 21:46:14 145.840 MHz, 145.915 MHz
STRAND 1 19 Sep 21:59:36 22:02:02 14° 303° (WNW) 22:04:29 ?
SO-50 19 Sep 22:03:08 22:06:19 19° 111° (ESE) 22:09:33 436.795 FM
Sapphire 19 Sep 22:08:47 22:14:14 75° 242° (WSW) 22:19:38 437.095 MHz 1200 baud AX-25 AFSK
KITSAT 1 19 Sep 22:33:22 22:39:57 26° 327° (NNW) 22:46:34 435.175 FM
PCSat 19 Sep 22:36:05 22:41:10 42° 247° (WSW) 22:46:13 145.825 MHz
FUNcube-1 19 Sep 22:46:49 22:51:14 89° 80° (E) 22:55:47 145.950 - 145.970 MHz USB
HO-68 19 Sep 22:57:25 23:02:38 22° 269° (W) 23:07:53 435.675 MHz FM
Oscar 11 19 Sep 22:57:35 23:01:23 29° 264° (W) 23:05:12 145.825 FM, Beacon 2401.500 USB
UKube-1 19 Sep 23:16:19 23:18:32 14° 269° (W) 23:20:45 145.840 MHz, 145.915 MHz
UOSAT-12 19 Sep 23:40:39 23:43:29 16° 109° (ESE) 23:46:22 437.025 FM, 437.400 FM
SO-50 19 Sep 23:42:04 23:46:28 53° 309° (NW) 23:51:00 436.795 FM
Sapphire 19 Sep 23:56:26 23:56:41 10° 259° (W) 23:56:55 437.095 MHz 1200 baud AX-25 AFSK
KITSAT 1 20 Sep 00:34:37 00:38:46 15° 356° (N) 00:42:55 435.175 FM
Saudisat 1A 20 Sep 00:55:23 00:58:29 18° 38° (NE) 01:01:33 436.775 MHz
UOSAT-12 20 Sep 01:18:30 01:23:06 66° 307° (NW) 01:27:49 437.025 FM, 437.400 FM
SO-50 20 Sep 01:26:18 01:28:07 12° 331° (NNW) 01:29:57 436.795 FM
Oscar 19 20 Sep 01:29:29 01:31:24 12° 88° (E) 01:33:19 437.125 CW, 437.150 USB
JAS-1B 20 Sep 01:54:51 01:55:55 11° 86° (E) 01:56:58 435.800 - 435.900 CW/SSB
Oscar 16 20 Sep 02:06:21 02:10:48 28° 95° (E) 02:15:12 437.025 USB, Beacon 2401.1428
AO-Echo 20 Sep 02:17:48 02:20:57 17° 92° (E) 02:24:08 ?
KITSAT 1 20 Sep 02:31:56 02:37:53 22° 27° (NNE) 02:43:49 435.175 FM
Saudisat 1A 20 Sep 02:34:08 02:38:34 75° 237° (WSW) 02:42:57 436.775 MHz
Gurwin Techsat 1B 20 Sep 02:42:10 02:44:16 12° 88° (E) 02:46:22 435.225 FM
Oscar 10/S400 20 Sep 02:45:48 03:52:22 30° 235° (SW) 07:35:00 145.825 - 145.975 CW/USB, Beacon 145.810 USB
ITAMSAT 1 20 Sep 02:50:16 02:54:50 30° 96° (E) 02:59:22 435.822 SSB
Uribyol 2 20 Sep 02:54:16 02:59:02 35° 97° (E) 03:03:46 436.500 FM
UOSAT-12 20 Sep 03:01:38 03:04:11 14° 328° (NNW) 03:06:44 437.025 FM, 437.400 FM
Oscar 19 20 Sep 03:06:13 03:11:26 86° 285° (WNW) 03:16:34 437.125 CW, 437.150 USB
ISS 20 Sep 03:14:42 03:17:56 49° 142° (SE) 03:21:10 145.800 FM
RS-15 20 Sep 03:17:19 03:25:17 24° 101° (ESE) 03:33:08 29.354 - 29.394 USB, Beacon 29.352 USB
TMSAT-1 20 Sep 03:17:36 03:21:26 20° 92° (E) 03:25:15 436.925 FM
AO-27 20 Sep 03:24:58 03:30:10 63° 102° (ESE) 03:35:20 436.795 MHz FM
OPAL 20 Sep 03:38:31 03:41:59 18° 57° (ENE) 03:45:27 ?
JAS-1B 20 Sep 03:41:48 03:47:37 89° 105° (ESE) 03:53:21 435.800 - 435.900 CW/SSB
Oscar 16 20 Sep 03:45:27 03:50:13 38° 292° (WNW) 03:54:57 437.025 USB, Beacon 2401.1428
AO-Echo 20 Sep 03:55:19 04:00:04 58° 288° (WNW) 04:04:56 ?
Gurwin Techsat 1B 20 Sep 04:19:35 04:24:56 87° 285° (WNW) 04:30:15 435.225 FM
KITSAT 1 20 Sep 04:27:03 04:35:05 62° 52° (NE) 04:43:03 435.175 FM
ITAMSAT 1 20 Sep 04:29:36 04:34:21 37° 293° (WNW) 04:39:06 435.822 SSB
AO-7 20 Sep 04:30:30 04:37:08 26° 93° (E) 04:43:44 29.400 - 29.500 MHz
Uribyol 2 20 Sep 04:33:50 04:38:26 32° 294° (WNW) 04:43:02 436.500 FM
Oscar 19 20 Sep 04:47:45 04:49:58 13° 303° (WNW) 04:52:11 437.125 CW, 437.150 USB
ISS 20 Sep 04:51:41 04:54:45 33° 341° (NNW) 04:57:49 145.800 FM
TMSAT-1 20 Sep 04:56:31 05:01:42 56° 289° (WNW) 05:06:52 436.925 FM
AO-27 20 Sep 05:05:36 05:09:11 19° 299° (WNW) 05:12:47 436.795 MHz FM
Uosat F 20 Sep 05:05:53 05:10:26 33° 97° (E) 05:14:57 435.120 FM
OPAL 20 Sep 05:15:08 05:20:18 70° 255° (WSW) 05:25:32 ?
RS-15 20 Sep 05:25:01 05:36:05 90° 123° (ESE) 05:47:05 29.354 - 29.394 USB, Beacon 29.352 USB
JAS-1B 20 Sep 05:34:36 05:37:25 14° 306° (NW) 05:40:12 435.800 - 435.900 CW/SSB
JAS-2 20 Sep 05:44:15 05:48:02 17° 91° (E) 05:52:02 435.800 - 435.900 CW/SSB, 435.910 FM
Hamsat 20 Sep 05:58:26 06:00:03 12° 89° (E) 06:01:40 145.90 MHz
STRAND 1 20 Sep 05:58:29 06:02:11 21° 62° (ENE) 06:05:53 ?
Gurwin Techsat 1B 20 Sep 06:01:36 06:04:06 14° 303° (WNW) 06:06:36 435.225 FM
AO-7 20 Sep 06:22:22 06:30:37 73° 292° (WNW) 06:38:51 29.400 - 29.500 MHz
KITSAT 1 20 Sep 06:23:04 06:30:01 33° 252° (WSW) 06:36:56 435.175 FM
ISS 20 Sep 06:29:31 06:32:08 21° 1° (N) 06:34:45 145.800 FM
SO-50 20 Sep 06:32:00 06:36:17 31° 44° (NE) 06:40:36 436.795 FM
Uosat F 20 Sep 06:44:45 06:49:09 31° 294° (WNW) 06:53:32 435.120 FM
JAS-2 20 Sep 07:27:35 07:33:35 83° 285° (WNW) 07:40:23 435.800 - 435.900 CW/SSB, 435.910 FM
Hamsat 20 Sep 07:32:14 07:36:28 63° 286° (WNW) 07:40:37 145.90 MHz
STRAND 1 20 Sep 07:35:59 07:40:58 55° 259° (W) 07:45:59 ?
RS-15 20 Sep 07:40:14 07:49:58 35° 330° (NNW) 07:59:48 29.354 - 29.394 USB, Beacon 29.352 USB
ISS 20 Sep 08:06:23 08:09:30 36° 21° (NNE) 08:12:37 145.800 FM
UOSAT-12 20 Sep 08:07:15 08:11:13 26° 42° (NE) 08:15:08 437.025 FM, 437.400 FM
SO-50 20 Sep 08:12:26 08:16:58 41° 243° (WSW) 08:21:30 436.795 FM
AO-7 20 Sep 08:16:46 08:22:03 19° 313° (NW) 08:27:19 29.400 - 29.500 MHz
MaSat-1 20 Sep 08:27:22 08:32:04 42° 110° (ESE) 08:36:42 437.345 MHz
HO-68 20 Sep 08:36:52 08:39:01 11° 85° (E) 08:41:09 435.675 MHz FM
SO-67 20 Sep 08:39:59 08:43:26 65° 284° (WNW) 08:46:50 435.3500 MHz FM
JAS-2 20 Sep 09:14:44 09:17:59 15° 302° (WNW) 09:21:25 435.800 - 435.900 CW/SSB, 435.910 FM
ISS 20 Sep 09:43:06 09:46:16 42° 219° (SW) 09:49:25 145.800 FM
UOSAT-12 20 Sep 09:47:03 09:51:38 52° 241° (WSW) 09:56:09 437.025 FM, 437.400 FM
RS-15 20 Sep 09:58:09 10:06:44 25° 5° (N) 10:15:27 29.354 - 29.394 USB, Beacon 29.352 USB
MaSat-1 20 Sep 10:04:34 10:08:56 29° 307° (NW) 10:13:12 437.345 MHz
HO-68 20 Sep 10:20:48 10:27:59 69° 104° (ESE) 10:35:07 435.675 MHz FM
FUNcube-1 20 Sep 10:35:44 10:38:47 17° 91° (E) 10:41:47 145.950 - 145.970 MHz USB
Oscar 11 20 Sep 10:43:13 10:47:25 45° 99° (E) 10:51:33 145.825 FM, Beacon 2401.500 USB
UKube-1 20 Sep 11:00:31 11:04:54 90° 100° (E) 11:09:16 145.840 MHz, 145.915 MHz
Sapphire 20 Sep 11:13:32 11:14:34 11° 101° (E) 11:15:36 437.095 MHz 1200 baud AX-25 AFSK
PCSat 20 Sep 11:37:15 11:41:07 20° 106° (ESE) 11:45:01 145.825 MHz
HO-68 20 Sep 12:09:23 12:15:06 27° 303° (WNW) 12:20:50 435.675 MHz FM
FUNcube-1 20 Sep 12:10:58 12:15:28 52° 288° (WNW) 12:19:55 145.950 - 145.970 MHz USB
RS-15 20 Sep 12:12:26 12:22:54 45° 38° (NE) 12:33:40 29.354 - 29.394 USB, Beacon 29.352 USB
Oscar 11 20 Sep 12:20:14 12:23:16 19° 296° (WNW) 12:26:18 145.825 FM, Beacon 2401.500 USB
JAS-1B 20 Sep 12:39:32 12:44:45 20° 57° (ENE) 12:49:28 435.800 - 435.900 CW/SSB
UKube-1 20 Sep 12:39:36 12:40:24 10° 302° (WNW) 12:41:11 145.840 MHz, 145.915 MHz
Oscar 19 20 Sep 12:46:48 12:50:44 22° 62° (ENE) 12:54:40 437.125 CW, 437.150 USB
Sapphire 20 Sep 12:51:39 12:57:02 78° 119° (ESE) 13:02:29 437.095 MHz 1200 baud AX-25 AFSK
AO-27 20 Sep 13:07:51 13:10:54 16° 59° (ENE) 13:13:57 436.795 MHz FM
PCSat 20 Sep 13:18:42 13:24:03 62° 304° (NW) 13:29:27 145.825 MHz
Oscar 16 20 Sep 13:24:28 13:29:25 47° 70° (ENE) 13:34:24 437.025 USB, Beacon 2401.1428
AO-Echo 20 Sep 13:32:14 13:36:05 25° 65° (ENE) 13:39:54 ?
AO-7 20 Sep 13:46:14 13:47:51 11° 37° (NE) 13:49:27 29.400 - 29.500 MHz
Gurwin Techsat 1B 20 Sep 14:03:44 14:07:54 24° 63° (ENE) 14:12:05 435.225 FM
ITAMSAT 1 20 Sep 14:09:33 14:14:32 52° 70° (ENE) 14:19:34 435.822 SSB
Uribyol 2 20 Sep 14:13:26 14:18:30 60° 72° (ENE) 14:23:37 436.500 FM
Oscar 19 20 Sep 14:24:38 14:29:42 53° 260° (W) 14:34:48 437.125 CW, 437.150 USB
RS-15 20 Sep 14:24:58 14:35:55 67° 243° (WSW) 14:47:19 29.354 - 29.394 USB, Beacon 29.352 USB
JAS-1B 20 Sep 14:26:06 14:34:41 87° 74° (ENE) 14:41:48 435.800 - 435.900 CW/SSB
Sapphire 20 Sep 14:37:02 14:41:05 21° 319° (NW) 14:45:10 437.095 MHz 1200 baud AX-25 AFSK
TMSAT-1 20 Sep 14:39:28 14:44:14 36° 67° (ENE) 14:49:01 436.925 FM
AO-27 20 Sep 14:44:37 14:49:47 76° 257° (WSW) 14:54:59 436.795 MHz FM
Oscar 16 20 Sep 15:04:56 15:09:00 23° 267° (W) 15:13:05 437.025 USB, Beacon 2401.1428
PCSat 20 Sep 15:05:45 15:08:36 14° 326° (NW) 15:11:29 145.825 MHz
AO-Echo 20 Sep 15:10:20 15:14:42 37° 262° (W) 15:19:03 ?
AO-7 20 Sep 15:30:49 15:38:25 42° 60° (ENE) 15:46:01 29.400 - 29.500 MHz
Gurwin Techsat 1B 20 Sep 15:42:26 15:47:33 49° 261° (W) 15:52:43 435.225 FM
ITAMSAT 1 20 Sep 15:50:31 15:54:20 21° 268° (W) 15:58:11 435.822 SSB
Uribyol 2 20 Sep 15:54:55 15:58:23 18° 269° (W) 16:01:53 436.500 FM
TMSAT-1 20 Sep 16:19:29 16:24:09 32° 264° (W) 16:28:52 436.925 FM
JAS-1B 20 Sep 16:20:08 16:25:46 19° 269° (W) 16:30:53 435.800 - 435.900 CW/SSB
Uosat F 20 Sep 16:20:24 16:25:15 54° 71° (ENE) 16:30:08 435.120 FM
RS-15 20 Sep 16:40:46 16:46:04 15° 264° (W) 16:51:28 29.354 - 29.394 USB, Beacon 29.352 USB
Saudisat 1A 20 Sep 16:42:54 16:46:06 20° 112° (ESE) 16:49:19 436.775 MHz
MaSat-1 20 Sep 16:44:02 16:45:41 12° 42° (NE) 16:47:14 437.345 MHz
Hamsat 20 Sep 16:53:44 16:55:24 12° 61° (ENE) 16:57:04 145.90 MHz
AO-7 20 Sep 17:23:06 17:31:04 49° 259° (W) 17:39:04 29.400 - 29.500 MHz
OPAL 20 Sep 17:24:14 17:28:37 27° 97° (E) 17:32:55 ?
JAS-2 20 Sep 17:42:27 17:47:24 46° 69° (ENE) 17:52:21 435.800 - 435.900 CW/SSB, 435.910 FM
Uosat F 20 Sep 18:00:53 18:04:22 19° 268° (W) 18:07:53 435.120 FM
MaSat-1 20 Sep 18:19:14 18:23:06 72° 245° (WSW) 18:26:22 437.345 MHz
Saudisat 1A 20 Sep 18:21:04 18:25:21 49° 310° (NW) 18:29:39 436.775 MHz
Hamsat 20 Sep 18:26:23 18:30:45 77° 258° (WSW) 18:35:07 145.90 MHz
KITSAT 1 20 Sep 18:57:31 19:04:32 34° 108° (ESE) 19:11:33 435.175 FM
OPAL 20 Sep 19:02:47 19:07:36 40° 294° (WNW) 19:12:20 ?
HO-68 20 Sep 19:08:11 19:11:10 13° 47° (NE) 19:14:09 435.675 MHz FM
SO-67 20 Sep 19:13:59 19:17:18 46° 74° (ENE) 19:20:39 435.3500 MHz FM
JAS-2 20 Sep 19:28:51 19:32:50 22° 267° (W) 19:36:47 435.800 - 435.900 CW/SSB, 435.910 FM
STRAND 1 20 Sep 19:45:06 19:50:01 45° 99° (E) 19:54:55 ?
Sapphire 20 Sep 19:55:55 19:59:31 18° 38° (NE) 20:03:06 437.095 MHz 1200 baud AX-25 AFSK
Saudisat 1A 20 Sep 20:04:50 20:05:59 11° 331° (NNW) 20:07:08 436.775 MHz
PCSat 20 Sep 20:22:22 20:26:55 26° 45° (NE) 20:31:26 145.825 MHz
UKube-1 20 Sep 20:24:59 20:25:58 11° 58° (ENE) 20:26:57 145.840 MHz, 145.915 MHz
SO-67 20 Sep 20:49:50 20:50:36 11° 270° (W) 20:51:23 435.3500 MHz FM
HO-68 20 Sep 20:50:28 20:57:25 59° 67° (ENE) 21:04:25 435.675 MHz FM
KITSAT 1 20 Sep 20:51:31 20:59:30 61° 308° (NW) 21:07:32 435.175 FM
